Location: Buffign�court
(47.8126°N, 6.0176°E)
Time: 20:38:23
(UTC+00:00)

Terra - Pass Details

Date: 16 June 2021
Orbit: 701 x 703 km, 98.2° (Epoch: 23 July)

Event Time Altitude Azimuth Distance (km) Brightness Sun altitude
Exits shadow 21:05:52 15° 150° (SSE) 1,834 3.3 -11.2°
Maximum altitude 21:09:42 63° 72° (ENE) 789 2.0 -11.5°
Drops below altitude 10° 21:14:26 10° 352° (N) 2,183 5.5 -12.0°
Sets 21:16:43 0° 349° (N) 3,105 6.5 -12.2°
